Location: Staunton
(38.1490°N, 79.0720°W)
Time: 05:59:15
(UTC-05:00)

ISS - Pass Details

Date: 23 September 2018
Orbit: 401 x 408 km, 51.6° (Epoch: 19 November)

Event Time Altitude Azimuth Distance (km) Brightness Sun altitude
Rises 19:27:11 0° 214° (SSW) 2,329 0.5 -3.9°
Reaches altitude 10° 19:29:20 10° 206° (SSW) 1,472 -0.7 -4.3°
Maximum altitude 19:32:27 40° 135° (SE) 616 -3.2 -4.9°
Drops below altitude 10° 19:35:36 10° 64° (ENE) 1,479 -1.5 -5.5°
Enters shadow 19:37:01 - 59° (ENE) 2,044 -0.8 -5.8°
